OpenBCM V1.07b12 (Linux)

Packet Radio Mailbox

DB0FHN

[JN59NK Nuernberg]

 Login: GUEST





  
ZS6FB  > SAT      30.09.03 18:03l 35 Lines 1093 Bytes #999 (0) @ AMSAT
BID : ANS-335.02
Read: GUEST
Subj: RS-20 LAUNCHED INTO ORBIT
Path: DB0AAB<DB0PV<OE2XOM<OE5XBL<OE3XSR<OK0PCC<OK0PHL<OK0POV<OK0PAB<OK0PBR<
      UA6ADV<ZS6FB
Sent: 021201/0746Z @:ZS6FB.MPU.ZAF.AF #:48016 PACTOR-2: XFBB7.04 $:ANS-335.02
From: ZS6FB@ZS6FB.MPU.ZAF.AF
To  : SAT@AMSAT


AMSAT News Service Bulletin 335.02 From AMSAT HQ
SILVER SPRING, MD. DECEMBER 1, 2002
To All RADIO AMATEURS
BID: $ANS-335.02

The following announcement was received from Alexander N. Zaitzev concerning
the launch of a new amateur satellite.

At November 28, 2002 at 09:41 Moscow time from Plesetsk were launched
two satellites - Algirian AlSat-1 and Russian "Mozhaetz" sirca RS-20 !
Please listen RS-20 at 435.319 MHz and 145.828 MHz. The telemetry
signal format almost the same as RS-21 (Kolibri-2000).

Any reports are appreciated on addresses as plis@kaluga.ru
and zaitzev@izmiran.rssi.ru.

Regards and 73 !   UA3XBU and RW3DZ

Early element sets for the two new satellites are shown below.

ALSAT-1
1 27559U 02054A   02332.58945067  .00014902  00000-0  34957-2 0    35
2 27559  98.2387 217.3033 0044901  72.7303 287.8426 14.53954521    46

MOZHAYETS
1 27560U 02054B   02332.86497891 -.00019965  00000-0 -47472-2 0    37
2 27560  98.2411 217.5728 0044302  75.5447 285.0613 14.53325574    86

[ANS thanks Alexander for the above information]



Read previous mail | Read next mail


 17.12.2025 07:19:50lGo back Go up